Regional Weather Roundup
Issued by NWS

Home | Current Version | Previous Version | Graphics & Text | Print | Product List | Glossary On
Versions: 1 2 3 4 5 6 7 8 9 10 11 12 13 14 15 16 17 18 19 20 21 22 23 24 25 26 27 28 29 30 31 32 33 34 35 36 37 38 39 40 41 42 43 44 45 46 47 48 49 50
000
ASUS43 KLOT 141803
RWRIL

ILLINOIS REGIONAL WEATHER ROUNDUP
NATIONAL WEATHER SERVICE CHICAGO/ROMEOVILLE IL
1200 PM CST THU DEC 14 2017

NOTE: "FAIR" INDICATES FEW OR NO CLOUDS BELOW 12,000 FEET WITH NO
SIGNIFICANT WEATHER AND/OR OBSTRUCTIONS TO VISIBILITY.

* THESE STATIONS ARE NOT UNDER NWS QUALITY CONTROL. THEY ALSO MAY NOT
  REPORT WEATHER SUCH AS PRECIPITATION OR FOG.

ILZ001-002-007-009-015-016-024-141900-
NORTHWEST ILLINOIS

CITY           SKY/WX    TMP DP  RH WIND       PRES   REMARKS
MOLINE         MOSUNNY   28  16  60 CALM      30.08F
6HR MIN TEMP:  24; 6HR MAX TEMP:  28;

SAVANNA*       SUNNY     26  10  52 CALM      30.08F
$$

ILZ003-004-008-010-011-017-018-141900-
NORTH CENTRAL ILLINOIS

CITY           SKY/WX    TMP DP  RH WIND       PRES   REMARKS
ROCKFORD       MOSUNNY   25  11  55 CALM      30.09F
6HR MIN TEMP:  12; 6HR MAX TEMP:  25;

FREEPORT*      SUNNY     23  11  60 CALM      30.08F
ROCHELLE*      MOSUNNY   26  12  57 N7        30.07F WCI  18
DE KALB*       MOSUNNY   24  13  62 N7        30.06F WCI  16
PERU*          CLOUDY    23   9  54 N5        30.09F WCI  17
$$

ILZ005-006-012>014-019>023-141900-
NORTHEAST ILLINOIS

CITY           SKY/WX    TMP DP  RH WIND       PRES   REMARKS
CHICAGO-OHARE  PTSUNNY   26  10  50 NW7       30.06F WCI  18
6HR MIN TEMP:  16; 6HR MAX TEMP:  26;

CHICAGO-MIDWAY PTSUNNY   26  14  60 W6        30.06F WCI  19
6HR MIN TEMP:  18; 6HR MAX TEMP:  27;

AURORA         SUNNY     25   9  50 N7        30.06F WCI  17
6HR MIN TEMP:  12; 6HR MAX TEMP:  25;

LANSING*       MOSUNNY   26  17  69 CALM      30.06F
JOLIET*        SUNNY     27  13  55 CALM      30.07F
WAUKEGAN       SUNNY     24  10  55 NW8       30.05F WCI  15
6HR MIN TEMP:  13; 6HR MAX TEMP:  24;

DUPAGE AIRPORT SUNNY     26  12  55 N7        30.05F WCI  18
6HR MIN TEMP:  14; 6HR MAX TEMP:  26;

WHEELING       PTSUNNY   26  10  50 NW7       30.08F WCI  18
6HR MIN TEMP:  15; 6HR MAX TEMP:  26;

NORTHERLY ISL    N/A     26  17  68 N10         N/A  WCI  16
$$

LMZ740>746-141900-
SOUTHERN LAKE MICHIGAN

STATION/POSITION SKY/WX   TEMP    WIND        PRES    VSBY  WAVE
                          AIR SEA DIR/SP/G                  HT/PER
                          (F)     (DEG/KT/KT) (MB)    (MI)  (FT/S)
HARRISON CRIB              25     340/ 13/ 14   N/A
BURNHAM HARBOR             26     350/  8/ 11   N/A
CALUMET HARBOR             26     320/  5/  7 1017.4F
BURNS HARBOR               25     210/  8/ 10 1018.3F
MICHIGAN CITY              20     150/  9/ 11   N/A
$$

ILZ025>027-034>036-040-047-049-050-058-095>099-141900-
WEST-CENTRAL ILLINOIS

CITY           SKY/WX    TMP DP  RH WIND       PRES   REMARKS
QUINCY         CLOUDY    28  16  60 W9        30.09F WCI  19
GALESBURG*     MOSUNNY   27  17  65 CALM      30.08F
MACOMB*        PTSUNNY   28  17  65 SE5       30.10F WCI  22
PITTSFIELD*    CLOUDY    29  17  60 CALM      30.10F
$$

ILZ028>032-037-038-041>044-048-051>054-059>061-141900-
CENTRAL ILLINOIS

CITY           SKY/WX    TMP DP  RH WIND       PRES   REMARKS
BLOOMINGTON    MOSUNNY   28  15  58 VRB3      30.07F
DECATUR        CLOUDY   N/A N/A N/A N6        30.07
PEORIA         MOSUNNY   28  12  51 NE6       30.09F WCI  22
6HR MIN TEMP:  20; 6HR MAX TEMP:  29;

LACON*         PTSUNNY   25  11  55 CALM      30.09F
LINCOLN*       MOSUNNY   29  15  56 CALM      30.09F
SPRINGFIELD    PTSUNNY   32  18  56 VRB3      30.09F
6HR MIN TEMP:  23; 6HR MAX TEMP:  32;

TAYLORVILLE    MOSUNNY   29  17  59 N8        30.08F WCI  21
6HR MIN TEMP:  23; 6HR MAX TEMP:  30;

$$

ILZ033-039-045-046-055>057-062-063-141900-
EAST-CENTRAL ILLINOIS

CITY           SKY/WX    TMP DP  RH WIND       PRES   REMARKS
CHAMPAIGN      CLOUDY    30  17  58 CALM      30.06F
DANVILLE*      CLOUDY    29  19  65 CALM      30.04F
MATTOON        CLOUDY    30  20  66 N6        30.06F WCI  24
$$

ILZ079-100>102-141900-
SOUTHWEST ILLINOIS

CITY           SKY/WX    TMP DP  RH WIND       PRES   REMARKS
ALTON          CLOUDY    30  19  64 N7        30.11F WCI  23
BELLEVILLE     CLOUDY    32  18  55 N5        30.09F WCI  27
CAHOKIA*       CLOUDY    32  17  54 NE3       30.11S
SPARTA*        CLOUDY    32  21  65 N6        30.09F WCI  26
$$

ILZ064>066-069>071-074>076-080>082-084>086-088>090-092>094-141900-
SOUTH-CENTRAL ILLINOIS

CITY           SKY/WX    TMP DP  RH WIND       PRES   REMARKS
CARBONDALE     CLOUDY    33  21  61 NW7       30.08F WCI  27
6HR MIN TEMP:  31; 6HR MAX TEMP:  34;

CAIRO*         CLOUDY    35  24  63 N5        30.08S WCI  31
EFFINGHAM*     CLOUDY    31  20  65 N3        30.10S
MARION         CLOUDY    34  21  60 N9        30.08F WCI  26
MT. VERNON     CLOUDY    33  19  56 CALM      30.08F
CENTRALIA*     CLOUDY    34  22  61 CALM      30.07F
SALEM*         CLOUDY    33  18  55 CALM      30.08S
METROPOLIS*    CLOUDY    35  22  61 N3        30.07F
$$

ILZ067-068-072-073-078-083-087-091-141900-
SOUTHEAST ILLINOIS

CITY           SKY/WX    TMP DP  RH WIND       PRES   REMARKS
LAWRENCEVILLE  CLOUDY    35  21  56 CALM      30.07F
FLORA*         CLOUDY    33  21  62 N6        30.09S WCI  27
HARRISBURG*    CLOUDY    34  21  58 N6        30.08F WCI  29
ROBINSON*      CLOUDY    32  20  63 N6        30.08F WCI  26
CARMI*         CLOUDY    33  21  60 N6        30.07S WCI  28
$$

ABBREVIATIONS USED IN REMARKS
   TC - TEMPERATURE IN CELSIUS
  WCI - WIND CHILL INDEX
   HX - HEAT INDEX
  VSB - VISIBILITY
$$





USA.gov is the U.S. government's official web portal to all federal, state and local government web resources and services.